Regional Weather Roundup
Issued by NWS

Home | Current Version | Previous Version | Text Only | Print | Product List | Glossary On
Versions: 1 2 3 4 5 6 7 8 9 10 11 12 13 14 15 16 17 18 19 20 21 22 23 24 25 26 27 28 29 30 31 32 33 34 35 36 37 38 39 40 41 42 43 44 45 46 47 48 49 50
000
ASUS43 KMKX 012100
RWRWI

WISCONSIN REGIONAL WEATHER ROUNDUP
NATIONAL WEATHER SERVICE MILWAUKEE/SULLIVAN WI
300 PM CST SUN FEB 01 2015

NOTE: "FAIR" INDICATES FEW OR NO CLOUDS BELOW 12,000 FEET WITH NO
SIGNIFICANT WEATHER AND/OR OBSTRUCTIONS TO VISIBILITY.

WIZ001-002-006>008-014>016-023>028-012200-
NORTHWEST WISCONSIN

CITY           SKY/WX    TMP DP  RH WIND       PRES   REMARKS
SUPERIOR ARPT  MOSUNNY   10  -6  48 NE8       30.33F WCI  -1
ASHLAND        CLOUDY    10   1  67 N16       30.29F WCI  -7
HAYWARD        PTSUNNY   11   1  64 N17G24    30.22S WCI  -6
SIREN          MOSUNNY   15  -1  50 NE14G20   30.24F WCI   0
CUMBERLAND     PTSUNNY   14   1  57 NE15G21   30.18S WCI  -1
RICE LAKE      PTSUNNY   14   4  64 N16       30.19F WCI  -2
CHETEK         PTSUNNY   16   1  52 N9G18     30.17S WCI   4
LADYSMITH      CLOUDY    16   2  54 N17G25    30.17S WCI   0
EAU CLAIRE     NOT AVBL
MENOMONIE      CLOUDY    17   1  50 N17G23    30.17F WCI   1
NEW RICHMOND   PTSUNNY   16   4  59 N16       30.20S WCI   0
OSCEOLA        PTSUNNY   16   4  58 NE15      30.25S WCI   2
$$

WIZ003>005-009-010-017-018-012200-
NORTH CENTRAL WISCONSIN

CITY           SKY/WX    TMP DP  RH WIND       PRES   REMARKS
MANITOWISH WTR CLOUDY    10  -2  60 NE10      30.14F WCI  -4
ARBOR VITAE    CLOUDY    11   0  60 NE12G17   30.13F WCI  -3
WOODRUFF       CLOUDY    11   0  60 NE12G17   30.13F WCI  -3
RHINELANDER    CLOUDY    10  -2  58 NE12G20   30.11F WCI  -5
EAGLE RIVER    CLOUDY    10  -2  58 NE12G21   30.12F WCI  -5
LAND O LAKES   CLOUDY    10   0  62 NE12G18   30.14F WCI  -4
PHILLIPS       MOSUNNY   11  -1  59 NE13G23   30.14S WCI  -4
TOMAHAWK       CLOUDY    11  -1  57 N7G21     30.12F WCI   0
MEDFORD        CLOUDY    12   0  59 N17       30.08F WCI  -5
MERRILL        CLOUDY    13   1  56 NE16G22   30.10F WCI  -3
$$

WIZ029-030-035-036-043>047-012200-
CENTRAL WISCONSIN

CITY           SKY/WX    TMP DP  RH WIND       PRES   REMARKS
WAUSAU         CLOUDY    13   1  59 NE9G18    30.08F WCI   1
MOSINEE        NOT AVBL
MARSHFIELD     CLOUDY    14   2  58 NE15G22   30.08S WCI  -1
STEVENS POINT  CLOUDY    11  -1  59 NE16G23   30.09S WCI  -6
WAUPACA        CLOUDY    13  -2  51 N15G23    30.10F WCI  -3
WAUTOMA        NOT AVBL
WISC RAPIDS    CLOUDY    13  -1  54 NE13      30.09F WCI  -2
CAMP DOUGLAS   NOT AVBL
$$

WIZ011>013-019>022-031-037>040-048>050-012200-
NORTHEAST WISCONSIN

CITY           SKY/WX    TMP DP  RH WIND       PRES   REMARKS
ANTIGO         CLOUDY    10   1  68 NE17      30.08F WCI  -8
SHAWANO        CLOUDY    13  -1  53 NE15      30.14F WCI  -3
OCONTO         CLOUDY     9  -5  54 NE13G21   30.17F WCI  -7
STURGEON BAY   CLOUDY     7  -2  66 N14G23    30.14F WCI -10
GREEN BAY      LGT SNOW   9   1  70 NE28G39   30.12S WCI -13
MANITOWOC      NOT AVBL
APPLETON       LGT SNOW   9   1  72 NE24G36   30.07F WCI -12
CLINTONVILLE   CLOUDY    12  -2  52 NE16G25   30.11F WCI  -4
OSHKOSH        SNOW       9   4  80 N26G37    30.05S VSB 1/2 WCI -13
$$

WIZ032>034-041-042-053>061-012200-
SOUTHWEST WISCONSIN

CITY           SKY/WX    TMP DP  RH WIND       PRES   REMARKS
LA CROSSE      LGT SNOW  16   7  67 N16       30.10R WCI   1
SPARTA         LGT SNOW  15   8  75 NE14      30.09S WCI   0
VIROQUA        CLOUDY    13   8  80 NE22G29   30.00R WCI  -5
BOSCOBEL       LGT SNOW  16   9  74 NE15G29   30.00S WCI   1
PRAIRIE DU CHI MIX PCPN  17   9  72 N13G25    29.99S WCI   3
PLATTEVILLE    CLOUDY    16  13  88 N26G36    29.88S VSB 1/2 WCI  -3
$$

WIZ056-057-062-063-064-067-068-012200-
SOUTH CENTRAL WISCONSIN

CITY           SKY/WX    TMP DP  RH WIND       PRES   REMARKS
REEDSBURG      LGT SNOW  13   7  79 NE20G28   30.01S WCI  -5
BARABOO/DELLS  LGT SNOW  12   7  81 NE18G26   30.01R WCI  -6
LONE ROCK      LGT SNOW  15   8  73 N16G29    29.99S VSB 1   WCI  -1
MINERAL POINT  SNOW      18  12  79 NE25G36   29.88F VSB 1/2 WCI  -1
MADISON        SNOW      12   8  84 NE26G38   29.95R VSB 1/4 WCI  -8
MIDDLETON      CLOUDY    15  10  82 NE30G38   29.95S VSB 1/4 WCI  -6
WATERTOWN      LGT SNOW  13  10  88 N16       29.93S VSB 3/4 WCI  -3
MONROE         LGT SNOW  16  12  86 N33G40    29.84S VSB 3/4 WCI  -5
JANESVILLE     LGT SNOW  23  18  80 NE22G28   29.85F VSB 1   WCI   8
$$

WIZ051-052-058>065-066-070>072-012200-
SOUTHEAST WISCONSIN

CITY           SKY/WX    TMP DP  RH WIND       PRES   REMARKS
MILWAUKEE      SNOW      22  17  81 NE28G39   29.90F VSB 1/4 WCI   4
WAUKESHA       LGT SNOW  18  16  93 NE12G35   29.90F VSB 1   WCI   5
MILWAUKEE/TIMM LGT SNOW  21  16  79 NE23G31   29.93S VSB 1   WCI   5
RACINE         SNOW      22  18  85 NE31G39   29.89F VSB 1/4 WCI   4
BURLINGTON     LGT SNOW  21  17  87 NE17G25   29.86F WCI   6
KENOSHA        HVY SNOW  21  19  92 NE20G35   29.85F VSB 1/4 WCI   6
FOND DU LAC    HAZE       9   4  80 N28G35    30.03S VSB 1/2 WCI -13
SHEBOYGAN      SNOW      18  13  80 NE29G37   29.99F VSB 1/2 WCI  -1
WEST BEND      LGT SNOW  19  14  79 NE16G28   29.95S VSB 3/4 WCI   5
JUNEAU         LGT SNOW  10   6  84 N23G33    29.97S VSB 3/4 WCI -10
$$

LSZ147-162-012200-
LAKE SUPERIOR

STATION/POSITION TIME  TEMP    WIND        PRES    WAVE
                       AIR SEA DIR/SP/G            HT/PER
                 (UTC) (F)     (DEG/KT/KT) (MB)    (FT/S)
DEVILS ISLAND    2000    9      30/ 15/ 18 1028.9F
PORT WING        2040   11      40/ 14/ 19 1026.8F
SAXON HARBOR     2000   15      30/ 16/ 21 1025.1
$$

LMZ867-665-643>646-012200-
LAKE MICHIGAN

STATION/POSITION TIME  TEMP    WIND        PRES    WAVE
                       AIR SEA DIR/SP/G            HT/PER
                 (UTC) (F)     (DEG/KT/KT) (MB)    (FT/S)
NORTHPORT PIER   2000   10      30/ 17/ 21 1022.7F
SISTER BAY       2013    9      20/ 15/ 27   N/A
KEWAUNEE LAKESHO 2000   17      40/ 29/ 33 1018.6F
SHEBOYGAN LAKESH 2000   20      40/ 31/ 35 1017.1F
PORT WASHINGTON  2021   23      40/ 26     1015.9S
MILWAUKEE LAKESH 2000   23      40/ 31/ 36   N/A
KENOSHA   LAKESH 2000   22      50/ 30/ 38 1011.9S
$$

TC  - TEMPERATURE IN CELSIUS
VSB - VISIBILITY IN STATUTE MILES
WCI - WIND CHILL INDEX
HX  - HEAT INDEX




USA.gov is the U.S. government's official web portal to all federal, state and local government web resources and services.